User: anonymous   Login
Location: Ambatotampy
(18.8181°S, 47.6186°E)
Time: 01:57:38
(UTC+00:00)
Language:

COSMOS 2251 DEB - Orbit

View from above orbital plane
View from above orbital plane
View from above satellite
View from above satellite

Ground track
Ground track

The orbit data is extracted from the following two-line orbital elements,

1 37085U 93036BFF 21216.26750371  .00000888  00000-0  12932-3 0  9991
2 37085  73.9807 179.1929 0089271  38.1100 322.6340 14.74857251434169
Epoch (UTC): 04 August 2021 06:25:12
Eccentricity: 0.0089271
inclination: 73.9807°
perigee height: 583 km
apogee height: 708 km
right ascension of ascending node: 179.1929°
argument of perigee: 38.1100°
revolutions per day: 14.74857251
mean anomaly at epoch: 322.6340°
orbit number at epoch: 43416

The dashed part of the orbit path shows where the satellite is in the earth's shadow,  

DLR